Wetterdaten: Donnerstag, 19.02.2015
Datum Zeit Temp. A. Feuchte A. Luftdruck Regen Wind Richtung Richtung Sonnenschein ET UV Solar Taupunkt Windchill Windben Empfang
19.02.2015 00:00 -0,5 C 72 % 1038,0 hPa 0,0 l/m 0,0 km/h (0 Bft) S-SW 207 0 min 0,000 mm 0,0 UV-I 0 W/m -4,9 C -0,5 C 0,0 km/h (0 Bft) 0,00 %
19.02.2015 00:15 -0,5 C 73 % 1038,0 hPa 0,0 l/m 0,0 km/h (0 Bft) SW 226 0 min 0,000 mm 0,0 UV-I 0 W/m -4,7 C -0,5 C 0,0 km/h (0 Bft) 0,00 %
19.02.2015 00:30 -0,5 C 72 % 1037,9 hPa 0,0 l/m 0,0 km/h (0 Bft) S 179 0 min 0,000 mm 0,0 UV-I 0 W/m -4,9 C -0,5 C 0,0 km/h (0 Bft) 0,00 %
19.02.2015 00:45 -0,5 C 73 % 1037,8 hPa 0,0 l/m 0,0 km/h (0 Bft) S-SW 192 0 min 0,000 mm 0,0 UV-I 0 W/m -4,7 C -0,5 C 0,0 km/h (0 Bft) 0,00 %
19.02.2015 01:00 -0,6 C 74 % 1037,9 hPa 0,0 l/m 0,0 km/h (0 Bft) S 185 0 min 0,000 mm 0,0 UV-I 0 W/m -4,6 C -0,6 C 0,0 km/h (0 Bft) 0,00 %
19.02.2015 01:15 -0,6 C 74 % 1037,7 hPa 0,0 l/m 0,0 km/h (0 Bft) S 190 0 min 0,000 mm 0,0 UV-I 0 W/m -4,6 C -0,6 C 0,0 km/h (0 Bft) 0,00 %
19.02.2015 01:30 -0,7 C 74 % 1037,5 hPa 0,0 l/m 0,0 km/h (0 Bft) SW 227 0 min 0,000 mm 0,0 UV-I 0 W/m -4,7 C -0,7 C 0,0 km/h (0 Bft) 0,00 %
19.02.2015 01:45 -0,7 C 74 % 1037,4 hPa 0,0 l/m 0,0 km/h (0 Bft) W-SW 253 0 min 0,000 mm 0,0 UV-I 0 W/m -4,7 C -0,7 C 0,0 km/h (0 Bft) 0,00 %
19.02.2015 02:00 -0,8 C 74 % 1037,3 hPa 0,0 l/m 0,0 km/h (0 Bft) S-SW 196 0 min 0,000 mm 0,0 UV-I 0 W/m -4,8 C -0,8 C 0,0 km/h (0 Bft) 0,00 %
19.02.2015 02:15 -0,9 C 75 % 1037,0 hPa 0,0 l/m 0,0 km/h (0 Bft) S-SW 206 0 min 0,000 mm 0,0 UV-I 0 W/m -4,8 C -0,9 C 0,0 km/h (0 Bft) 0,00 %
19.02.2015 02:30 -0,9 C 75 % 1036,8 hPa 0,0 l/m 0,0 km/h (0 Bft) S-SW 207 0 min 0,000 mm 0,0 UV-I 0 W/m -4,8 C -0,9 C 0,0 km/h (0 Bft) 0,00 %
19.02.2015 02:45 -0,9 C 75 % 1036,7 hPa 0,0 l/m 0,0 km/h (0 Bft) S-SW 200 0 min 0,000 mm 0,0 UV-I 0 W/m -4,8 C -0,9 C 0,0 km/h (0 Bft) 0,00 %
19.02.2015 03:00 -0,9 C 76 % 1036,5 hPa 0,0 l/m 0,0 km/h (0 Bft) S-SW 211 0 min 0,000 mm 0,0 UV-I 0 W/m -4,6 C -0,9 C 0,0 km/h (0 Bft) 0,00 %
19.02.2015 03:15 -1,0 C 76 % 1036,2 hPa 0,0 l/m 0,0 km/h (0 Bft) S-SW 203 0 min 0,000 mm 0,0 UV-I 0 W/m -4,7 C -1,0 C 0,0 km/h (0 Bft) 0,00 %
19.02.2015 03:30 -1,1 C 77 % 1036,0 hPa 0,0 l/m 0,0 km/h (0 Bft) S-SW 206 0 min 0,000 mm 0,0 UV-I 0 W/m -4,6 C -1,1 C 0,0 km/h (0 Bft) 0,00 %
19.02.2015 03:45 -1,1 C 77 % 1036,0 hPa 0,0 l/m 0,7 km/h (0 Bft) SW 233 0 min 0,000 mm 0,0 UV-I 0 W/m -4,6 C -1,1 C 4,0 km/h (1 Bft) 0,00 %
19.02.2015 04:00 -1,1 C 76 % 1035,7 hPa 0,0 l/m 0,0 km/h (0 Bft) W-SW 251 0 min 0,000 mm 0,0 UV-I 0 W/m -4,8 C -1,1 C 0,0 km/h (0 Bft) 0,00 %
19.02.2015 04:15 -1,2 C 75 % 1035,7 hPa 0,0 l/m 0,0 km/h (0 Bft) S-SW 204 0 min 0,000 mm 0,0 UV-I 0 W/m -5,0 C -1,2 C 0,0 km/h (0 Bft) 0,00 %
19.02.2015 04:30 -1,2 C 76 % 1035,7 hPa 0,0 l/m 1,8 km/h (1 Bft) W-SW 256 0 min 0,000 mm 0,0 UV-I 0 W/m -4,9 C -1,2 C 4,0 km/h (1 Bft) 0,00 %
19.02.2015 04:45 -1,2 C 76 % 1035,5 hPa 0,0 l/m 0,0 km/h (0 Bft) SW 216 0 min 0,000 mm 0,0 UV-I 0 W/m -4,9 C -1,2 C 0,0 km/h (0 Bft) 0,00 %
19.02.2015 05:00 -1,3 C 76 % 1035,2 hPa 0,0 l/m 0,0 km/h (0 Bft) S-SW 199 0 min 0,000 mm 0,0 UV-I 0 W/m -5,0 C -1,3 C 0,0 km/h (0 Bft) 0,00 %
19.02.2015 05:15 -1,3 C 77 % 1035,2 hPa 0,0 l/m 0,0 km/h (0 Bft) SW 220 0 min 0,000 mm 0,0 UV-I 0 W/m -4,8 C -1,3 C 0,0 km/h (0 Bft) 0,00 %
19.02.2015 05:30 -1,3 C 77 % 1035,2 hPa 0,0 l/m 0,0 km/h (0 Bft) SW 228 0 min 0,000 mm 0,0 UV-I 0 W/m -4,8 C -1,3 C 0,0 km/h (0 Bft) 0,00 %
19.02.2015 05:45 -1,4 C 77 % 1035,2 hPa 0,0 l/m 0,0 km/h (0 Bft) SW 226 0 min 0,000 mm 0,0 UV-I 0 W/m -4,9 C -1,4 C 0,0 km/h (0 Bft) 0,00 %
19.02.2015 06:00 -1,5 C 77 % 1035,1 hPa 0,0 l/m 0,0 km/h (0 Bft) W-SW 252 0 min 0,000 mm 0,0 UV-I 0 W/m -5,0 C -1,5 C 0,0 km/h (0 Bft) 0,00 %
19.02.2015 06:15 -1,5 C 78 % 1035,3 hPa 0,0 l/m 0,0 km/h (0 Bft) S-SW 213 0 min 0,000 mm 0,0 UV-I 0 W/m -4,8 C -1,5 C 0,0 km/h (0 Bft) 0,00 %
19.02.2015 06:30 -1,6 C 78 % 1035,2 hPa 0,0 l/m 0,0 km/h (0 Bft) SW 230 0 min 0,000 mm 0,0 UV-I 0 W/m -4,9 C -1,6 C 0,0 km/h (0 Bft) 0,00 %
19.02.2015 06:45 -1,6 C 79 % 1035,1 hPa 0,0 l/m 0,0 km/h (0 Bft) W-SW 254 0 min 0,000 mm 0,0 UV-I 0 W/m -4,8 C -1,6 C 0,0 km/h (0 Bft) 0,00 %
19.02.2015 07:00 -1,6 C 79 % 1035,1 hPa 0,0 l/m 0,0 km/h (0 Bft) W-SW 255 0 min 0,000 mm 0,0 UV-I 0 W/m -4,8 C -1,6 C 0,0 km/h (0 Bft) 0,00 %
19.02.2015 07:15 -1,6 C 80 % 1035,2 hPa 0,0 l/m 0,0 km/h (0 Bft) SW 219 0 min 0,000 mm 0,0 UV-I 0 W/m -4,6 C -1,6 C 0,0 km/h (0 Bft) 0,00 %
19.02.2015 07:30 -1,6 C 80 % 1035,6 hPa 0,0 l/m 0,0 km/h (0 Bft) W-SW 239 0 min 0,000 mm 0,0 UV-I 0 W/m -4,6 C -1,6 C 0,0 km/h (0 Bft) 0,00 %
19.02.2015 07:45 -1,8 C 79 % 1035,5 hPa 0,0 l/m 0,0 km/h (0 Bft) S-SW 202 0 min 0,000 mm 0,0 UV-I 1 W/m -4,9 C -1,8 C 0,0 km/h (0 Bft) 0,00 %
19.02.2015 08:00 -1,8 C 79 % 1035,4 hPa 0,0 l/m 0,0 km/h (0 Bft) W-SW 256 0 min 0,000 mm 0,0 UV-I 6 W/m -4,9 C -1,8 C 0,0 km/h (0 Bft) 0,00 %
19.02.2015 08:15 -1,9 C 79 % 1035,4 hPa 0,0 l/m 0,0 km/h (0 Bft) S-SW 209 0 min 0,000 mm 0,0 UV-I 16 W/m -5,0 C -1,9 C 0,0 km/h (0 Bft) 0,00 %
19.02.2015 08:30 -1,8 C 79 % 1035,4 hPa 0,0 l/m 0,0 km/h (0 Bft) W-SW 252 0 min 0,000 mm 0,0 UV-I 24 W/m -4,9 C -1,8 C 0,0 km/h (0 Bft) 0,00 %
19.02.2015 08:45 -1,7 C 79 % 1035,4 hPa 0,0 l/m 0,0 km/h (0 Bft) SW 221 0 min 0,000 mm 0,0 UV-I 28 W/m -4,8 C -1,7 C 0,0 km/h (0 Bft) 0,00 %
19.02.2015 09:00 -1,7 C 79 % 1035,3 hPa 0,0 l/m 0,0 km/h (0 Bft) SW 216 0 min 0,000 mm 1,0 UV-I 31 W/m -4,8 C -1,7 C 0,0 km/h (0 Bft) 0,00 %
19.02.2015 09:15 -1,4 C 77 % 1035,1 hPa 0,0 l/m 0,0 km/h (0 Bft) S-SW 213 0 min 0,000 mm 1,0 UV-I 39 W/m -4,9 C -1,4 C 0,0 km/h (0 Bft) 0,00 %
19.02.2015 09:30 -1,6 C 78 % 1035,4 hPa 0,0 l/m 0,0 km/h (0 Bft) S 182 0 min 0,000 mm 1,0 UV-I 41 W/m -4,9 C -1,6 C 0,0 km/h (0 Bft) 0,00 %
19.02.2015 09:45 -1,4 C 76 % 1035,2 hPa 0,0 l/m 0,0 km/h (0 Bft) SW 223 0 min 0,000 mm 1,0 UV-I 58 W/m -5,1 C -1,4 C 0,0 km/h (0 Bft) 0,00 %
19.02.2015 10:00 -1,2 C 76 % 1035,3 hPa 0,0 l/m 0,0 km/h (0 Bft) S-SW 201 0 min 0,000 mm 1,0 UV-I 55 W/m -4,9 C -1,2 C 0,0 km/h (0 Bft) 0,00 %
19.02.2015 10:15 -1,1 C 74 % 1035,1 hPa 0,0 l/m 0,0 km/h (0 Bft) S-SW 203 0 min 0,000 mm 1,0 UV-I 73 W/m -5,1 C -1,1 C 0,0 km/h (0 Bft) 0,00 %
19.02.2015 10:30 -0,9 C 74 % 1035,0 hPa 0,0 l/m 0,0 km/h (0 Bft) S 175 0 min 0,000 mm 1,0 UV-I 84 W/m -4,9 C -0,9 C 0,0 km/h (0 Bft) 0,00 %
19.02.2015 10:45 -0,9 C 74 % 1035,0 hPa 0,0 l/m 0,0 km/h (0 Bft) S-SW 206 0 min 0,000 mm 1,0 UV-I 82 W/m -4,9 C -0,9 C 0,0 km/h (0 Bft) 0,00 %
19.02.2015 11:00 -0,5 C 72 % 1034,7 hPa 0,0 l/m 0,0 km/h (0 Bft) S-SW 192 0 min 0,000 mm 1,0 UV-I 116 W/m -4,9 C -0,5 C 0,0 km/h (0 Bft) 0,00 %
19.02.2015 11:15 -0,5 C 72 % 1034,8 hPa 0,0 l/m 0,0 km/h (0 Bft) S-SW 194 0 min 0,000 mm 1,0 UV-I 100 W/m -4,9 C -0,5 C 0,0 km/h (0 Bft) 0,00 %
19.02.2015 11:30 -0,5 C 71 % 1034,4 hPa 0,0 l/m 0,0 km/h (0 Bft) S-SW 201 0 min 0,000 mm 1,0 UV-I 122 W/m -5,1 C -0,5 C 0,0 km/h (0 Bft) 0,00 %
19.02.2015 11:45 -0,2 C 70 % 1034,2 hPa 0,0 l/m 0,0 km/h (0 Bft) S 176 0 min 0,000 mm 2,0 UV-I 143 W/m -5,0 C -0,2 C 0,0 km/h (0 Bft) 0,00 %
19.02.2015 12:00 -0,2 C 68 % 1034,0 hPa 0,0 l/m 0,0 km/h (0 Bft) W-SW 250 0 min 0,000 mm 2,0 UV-I 155 W/m -5,4 C -0,2 C 0,0 km/h (0 Bft) 0,00 %
19.02.2015 12:15 0,1 C 68 % 1033,7 hPa 0,0 l/m 0,0 km/h (0 Bft) SW 229 0 min 0,000 mm 2,0 UV-I 149 W/m -5,1 C 0,1 C 0,0 km/h (0 Bft) 0,00 %
19.02.2015 12:30 0,3 C 67 % 1033,4 hPa 0,0 l/m 0,0 km/h (0 Bft) S-SW 194 0 min 0,000 mm 2,0 UV-I 157 W/m -5,1 C 0,3 C 0,0 km/h (0 Bft) 0,00 %
19.02.2015 12:45 0,6 C 64 % 1033,2 hPa 0,0 l/m 0,0 km/h (0 Bft) W-SW 251 0 min 0,000 mm 2,0 UV-I 161 W/m -5,4 C 0,6 C 0,0 km/h (0 Bft) 0,00 %
19.02.2015 13:00 0,4 C 66 % 1032,9 hPa 0,0 l/m 0,4 km/h (0 Bft) SW 218 0 min 0,000 mm 2,0 UV-I 200 W/m -5,2 C 0,4 C 4,0 km/h (1 Bft) 0,00 %
19.02.2015 13:15 1,0 C 64 % 1032,7 hPa 0,0 l/m 0,0 km/h (0 Bft) S-SW 201 0 min 0,000 mm 2,0 UV-I 234 W/m -5,0 C 1,0 C 0,0 km/h (0 Bft) 0,00 %
19.02.2015 13:30 1,2 C 62 % 1032,2 hPa 0,0 l/m 0,0 km/h (0 Bft) S 182 0 min 0,000 mm 2,0 UV-I 221 W/m -5,3 C 1,2 C 0,0 km/h (0 Bft) 0,00 %
19.02.2015 13:45 1,7 C 61 % 1031,9 hPa 0,0 l/m 0,0 km/h (0 Bft) SW 232 0 min 0,000 mm 2,0 UV-I 230 W/m -5,0 C 1,7 C 0,0 km/h (0 Bft) 0,00 %
19.02.2015 14:00 0,8 C 65 % 1031,8 hPa 0,0 l/m 0,0 km/h (0 Bft) S-SW 192 0 min 0,000 mm 2,0 UV-I 195 W/m -5,0 C 0,8 C 0,0 km/h (0 Bft) 0,00 %
19.02.2015 14:15 1,4 C 62 % 1031,6 hPa 0,0 l/m 0,0 km/h (0 Bft) S-SW 204 0 min 0,000 mm 2,0 UV-I 150 W/m -5,1 C 1,4 C 0,0 km/h (0 Bft) 0,00 %
19.02.2015 14:30 1,3 C 64 % 1031,5 hPa 0,0 l/m 0,0 km/h (0 Bft) S-SW 209 0 min 0,000 mm 2,0 UV-I 135 W/m -4,7 C 1,3 C 0,0 km/h (0 Bft) 0,00 %
19.02.2015 14:45 1,2 C 65 % 1031,2 hPa 0,0 l/m 0,0 km/h (0 Bft) S-SW 206 0 min 0,000 mm 2,0 UV-I 199 W/m -4,6 C 1,2 C 0,0 km/h (0 Bft) 0,00 %
19.02.2015 15:00 1,1 C 65 % 1031,0 hPa 0,0 l/m 2,2 km/h (1 Bft) NW 312 0 min 0,000 mm 1,0 UV-I 180 W/m -4,7 C 1,1 C 4,0 km/h (1 Bft) 0,00 %
19.02.2015 15:15 0,8 C 66 % 1031,1 hPa 0,0 l/m 0,0 km/h (0 Bft) SW 230 15 min 0,000 mm 1,0 UV-I 188 W/m -4,8 C 0,8 C 0,0 km/h (0 Bft) 0,00 %
19.02.2015 15:30 1,0 C 65 % 1030,7 hPa 0,0 l/m 0,0 km/h (0 Bft) S 184 15 min 0,000 mm 1,0 UV-I 199 W/m -4,8 C 1,0 C 0,0 km/h (0 Bft) 0,00 %
19.02.2015 15:45 1,1 C 64 % 1030,4 hPa 0,0 l/m 0,0 km/h (0 Bft) S-SO 165 15 min 0,000 mm 1,0 UV-I 156 W/m -4,9 C 1,1 C 0,0 km/h (0 Bft) 0,00 %
19.02.2015 16:00 1,1 C 65 % 1030,3 hPa 0,0 l/m 0,0 km/h (0 Bft) S-SW 194 15 min 0,000 mm 1,0 UV-I 177 W/m -4,7 C 1,1 C 0,0 km/h (0 Bft) 0,00 %
19.02.2015 16:15 1,1 C 65 % 1030,2 hPa 0,0 l/m 0,0 km/h (0 Bft) SW 231 15 min 0,000 mm 1,0 UV-I 180 W/m -4,7 C 1,1 C 0,0 km/h (0 Bft) 0,00 %
19.02.2015 16:30 1,4 C 63 % 1030,0 hPa 0,0 l/m 0,0 km/h (0 Bft) W-SW 251 15 min 0,000 mm 1,0 UV-I 184 W/m -4,9 C 1,4 C 0,0 km/h (0 Bft) 0,00 %
19.02.2015 16:45 1,5 C 63 % 1029,8 hPa 0,0 l/m 0,0 km/h (0 Bft) S 181 15 min 0,000 mm 0,0 UV-I 127 W/m -4,8 C 1,5 C 0,0 km/h (0 Bft) 0,00 %
19.02.2015 17:00 0,6 C 69 % 1029,9 hPa 0,0 l/m 0,0 km/h (0 Bft) O-NO 72 15 min 0,000 mm 0,0 UV-I 44 W/m -4,4 C 0,6 C 0,0 km/h (0 Bft) 0,00 %
19.02.2015 17:15 0,2 C 70 % 1029,8 hPa 0,0 l/m 0,0 km/h (0 Bft) W-SW 251 15 min 0,000 mm 0,0 UV-I 20 W/m -4,6 C 0,2 C 0,0 km/h (0 Bft) 0,00 %
19.02.2015 17:30 -0,3 C 72 % 1029,8 hPa 0,0 l/m 0,0 km/h (0 Bft) S 179 0 min 0,000 mm 0,0 UV-I 0 W/m -4,7 C -0,3 C 0,0 km/h (0 Bft) 0,00 %
19.02.2015 17:45 -0,7 C 75 % 1029,9 hPa 0,0 l/m 0,0 km/h (0 Bft) S 181 0 min 0,000 mm 0,0 UV-I 0 W/m -4,6 C -0,7 C 0,0 km/h (0 Bft) 0,00 %
19.02.2015 18:00 -1,2 C 76 % 1029,8 hPa 0,0 l/m 0,0 km/h (0 Bft) S-SW 211 0 min 0,000 mm 0,0 UV-I 0 W/m -4,9 C -1,2 C 0,0 km/h (0 Bft) 0,00 %
19.02.2015 18:15 -1,5 C 79 % 1030,0 hPa 0,0 l/m 0,0 km/h (0 Bft) S-SW 203 0 min 0,000 mm 0,0 UV-I 0 W/m -4,7 C -1,5 C 0,0 km/h (0 Bft) 0,00 %
19.02.2015 18:30 -1,8 C 81 % 1029,9 hPa 0,0 l/m 0,0 km/h (0 Bft) S-SW 207 0 min 0,000 mm 0,0 UV-I 0 W/m -4,6 C -1,8 C 0,0 km/h (0 Bft) 0,00 %
19.02.2015 18:45 -1,9 C 81 % 1029,5 hPa 0,0 l/m 0,0 km/h (0 Bft) S-SW 198 0 min 0,000 mm 0,0 UV-I 0 W/m -4,7 C -1,9 C 0,0 km/h (0 Bft) 0,00 %
19.02.2015 19:00 -2,1 C 81 % 1029,7 hPa 0,0 l/m 0,0 km/h (0 Bft) S-SW 203 0 min 0,000 mm 0,0 UV-I 0 W/m -4,9 C -2,1 C 0,0 km/h (0 Bft) 0,00 %
19.02.2015 19:15 -2,3 C 82 % 1029,5 hPa 0,0 l/m 0,0 km/h (0 Bft) S-SW 192 0 min 0,000 mm 0,0 UV-I 0 W/m -4,9 C -2,3 C 0,0 km/h (0 Bft) 0,00 %
19.02.2015 19:30 -2,2 C 82 % 1029,5 hPa 0,0 l/m 0,0 km/h (0 Bft) S 187 0 min 0,000 mm 0,0 UV-I 0 W/m -4,8 C -2,2 C 0,0 km/h (0 Bft) 0,00 %
19.02.2015 19:45 -2,2 C 82 % 1029,5 hPa 0,0 l/m 0,0 km/h (0 Bft) S 189 0 min 0,000 mm 0,0 UV-I 0 W/m -4,8 C -2,2 C 0,0 km/h (0 Bft) 0,00 %
19.02.2015 20:00 -2,3 C 83 % 1029,3 hPa 0,0 l/m 0,0 km/h (0 Bft) S 173 0 min 0,000 mm 0,0 UV-I 0 W/m -4,8 C -2,3 C 0,0 km/h (0 Bft) 0,00 %
19.02.2015 20:15 -2,6 C 79 % 1029,2 hPa 0,0 l/m 0,0 km/h (0 Bft) S-SW 205 0 min 0,000 mm 0,0 UV-I 0 W/m -5,7 C -2,6 C 0,0 km/h (0 Bft) 0,00 %
19.02.2015 20:30 -3,0 C 79 % 1029,2 hPa 0,0 l/m 0,0 km/h (0 Bft) S 191 0 min 0,000 mm 0,0 UV-I 0 W/m -6,1 C -3,0 C 0,0 km/h (0 Bft) 0,00 %
19.02.2015 20:45 -3,0 C 79 % 1029,2 hPa 0,0 l/m 0,0 km/h (0 Bft) S-SW 197 0 min 0,000 mm 0,0 UV-I 0 W/m -6,1 C -3,0 C 0,0 km/h (0 Bft) 0,00 %
19.02.2015 21:00 -3,1 C 80 % 1029,1 hPa 0,0 l/m 0,0 km/h (0 Bft) S-SW 194 0 min 0,000 mm 0,0 UV-I 0 W/m -6,0 C -3,1 C 0,0 km/h (0 Bft) 0,00 %
19.02.2015 21:15 -3,1 C 80 % 1028,8 hPa 0,0 l/m 0,0 km/h (0 Bft) S-SW 201 0 min 0,000 mm 0,0 UV-I 0 W/m -6,0 C -3,1 C 0,0 km/h (0 Bft) 0,00 %
19.02.2015 21:30 -3,2 C 80 % 1028,8 hPa 0,0 l/m 0,0 km/h (0 Bft) S-SW 197 0 min 0,000 mm 0,0 UV-I 0 W/m -6,1 C -3,2 C 0,0 km/h (0 Bft) 0,00 %
19.02.2015 21:45 -3,5 C 81 % 1028,9 hPa 0,0 l/m 0,0 km/h (0 Bft) SW 214 0 min 0,000 mm 0,0 UV-I 0 W/m -6,3 C -3,5 C 0,0 km/h (0 Bft) 0,00 %
19.02.2015 22:00 -3,7 C 80 % 1028,7 hPa 0,0 l/m 0,0 km/h (0 Bft) S-SW 199 0 min 0,000 mm 0,0 UV-I 0 W/m -6,6 C -3,7 C 0,0 km/h (0 Bft) 0,00 %
19.02.2015 22:15 -3,6 C 81 % 1028,7 hPa 0,0 l/m 0,0 km/h (0 Bft) S-SW 195 0 min 0,000 mm 0,0 UV-I 0 W/m -6,4 C -3,6 C 0,0 km/h (0 Bft) 0,00 %
19.02.2015 22:30 -3,7 C 82 % 1028,4 hPa 0,0 l/m 0,0 km/h (0 Bft) S-SW 194 0 min 0,000 mm 0,0 UV-I 0 W/m -6,3 C -3,7 C 0,0 km/h (0 Bft) 0,00 %
19.02.2015 22:45 -3,6 C 82 % 1028,3 hPa 0,0 l/m 0,0 km/h (0 Bft) S-SW 197 0 min 0,000 mm 0,0 UV-I 0 W/m -6,2 C -3,6 C 0,0 km/h (0 Bft) 0,00 %
19.02.2015 23:00 -3,8 C 82 % 1028,1 hPa 0,0 l/m 0,0 km/h (0 Bft) S-SW 202 0 min 0,000 mm 0,0 UV-I 0 W/m -6,4 C -3,8 C 0,0 km/h (0 Bft) 0,00 %
19.02.2015 23:15 -3,9 C 81 % 1028,0 hPa 0,0 l/m 0,0 km/h (0 Bft) S-SW 202 0 min 0,000 mm 0,0 UV-I 0 W/m -6,7 C -3,9 C 0,0 km/h (0 Bft) 0,00 %
19.02.2015 23:30 -4,4 C 81 % 1028,0 hPa 0,0 l/m 0,0 km/h (0 Bft) S-SW 201 0 min 0,000 mm 0,0 UV-I 0 W/m -7,2 C -4,4 C 0,0 km/h (0 Bft) 0,00 %
19.02.2015 23:45 -4,4 C 81 % 1028,0 hPa 0,0 l/m 0,0 km/h (0 Bft) S-SW 197 0 min 0,000 mm 0,0 UV-I 0 W/m -7,2 C -4,4 C 0,0 km/h (0 Bft) 0,00 %
_ Min-Zeit 23:30 13:45 23:15 - 00:00 - - - - - - 23:30 23:30 00:00 00:00
Minimum _ -4,4 C 61 % 1028,0 hPa - 0,0 km/h (0 Bft) - - - - - - -7,2 C -4,4 C 0,0 km/h (0 Bft) 0,00 %
_ Max-Zeit 13:45 20:00 00:00 00:00 15:00 - - 15:15 00:00 11:45 13:15 17:00 13:45 03:45 00:00
Maximum _ 1,7 C 83 % 1038,0 hPa 0,0 l/m 2,2 km/h
NW (1 Bft)
- - 15 min 0,000 mm 2,0 UV-I 234 W/m -4,4 C 1,7 C 4,0 km/h
SW (1 Bft)
0,00 %
Durchschnitt _ -1,1 C 75 % 1033,0 hPa #0,0 l/m 0,1 km/h (0 Bft) W-SW - #2:15 h #0,000 mm 1,4 UV-I 119 W/m -5,1 C -1,1 C 0,2 km/h (0 Bft) 0,00 %